Location: Limerick
(52.6650°N, 8.6230°W)
Time: 19:48:29
(UTC+01:00)

ISS - Pass Details

Date: 23 July 2017
Orbit: 400 x 408 km, 51.6° (Epoch: 21 July)

Event Time Altitude Azimuth Distance (km) Brightness Sun altitude
Rises 03:59:59 0° 280° (W) 2,316 -0.2 -11.3°
Reaches altitude 10° 04:02:09 10° 272° (W) 1,456 -1.3 -11.1°
Maximum altitude 04:05:10 36° 204° (SSW) 651 -3.3 -10.8°
Drops below altitude 10° 04:08:13 10° 135° (SE) 1,454 -1.1 -10.6°
Sets 04:10:22 0° 127° (SE) 2,312 0.0 -10.4°
